Location: Newark
(29.9790°N, 31.1340°E)
Time: 23:50:04
(UTC+00:00)

Vanguard 3 - Pass Details

Date: 19 January 2021
Orbit: 508 x 3262 km, 33.4° (Epoch: 06 March)

Event Time Altitude Azimuth Distance (km) Brightness Sun altitude
Exits shadow 01:45:44 61° 135° (SE) 1,624 8.6 -39.8°
Drops below altitude 10° 01:57:20 10° 74° (ENE) 4,817 11.7 -37.3°
Sets 02:02:11 0° 72° (ENE) 6,250 12.5 -36.3°
